Weather History for Orangeburg, SC

Change the Weather History Date:

Tuesday, December 25, 2012

  Actual Average Record
Temperature  
Mean Temperature 51 °F 46 °F  
Max Temperature 53 °F 57 °F 79 °F (1955)
Min Temperature 49 °F 35 °F 8 °F (1983)
Degree Days  
Heating Degree Days 14 19  
Month to date heating degree days 251 420  
Since 1 July heating degree days 701 789  
Cooling Degree Days 0 0  
Month to date cooling degree days 2 0  
Year to date cooling degree days 2322 2102  
Moisture  
Dew Point 49 °F    
Average Humidity 91    
Maximum Humidity 96    
Minimum Humidity 83    
Precipitation  
Precipitation 0.70 in 0.10 in 0.99 in (2006)
Month to date precipitation 2.99 2.78  
Year to date precipitation 41.29 46.19  
Sea Level Pressure  
Sea Level Pressure 30.00 in    
Wind  
Wind Speed 4 mph (NE)    
Max Wind Speed 14 mph    
Max Gust Speed 20 mph    
Visibility 5 miles    
Events Rain    
T = Trace of Precipitation, MM = Missing Value Source: NWS Daily Summary

Daily Weather History Graph

Daily Weather History Graph

Search for Another Location

Airport:

Trip Planner

Search our weather history database for the weather conditions in past years. The results will help you decide how hot, cold, wet, or windy it might be!

Date:

Astronomy

Dec. 25, 2012 Rise Set
Actual Time 7:25 AM EST 5:22 PM EST
Civil Twilight 6:58 AM EST 5:49 PM EST
Nautical Twilight 6:26 AM EST 6:20 PM EST
Astronomical Twilight 5:56 AM EST 6:51 PM EST
Moon 3:27 PM EST (12/25) 4:58 AM EST (12/25)
Length of Visible Light 10h 51m
Length of Day
9h 56m
Waxing Gibbous, 93% of the Moon is Illuminated
Dec 25
Waxing Gibbous
Dec 28
Full
Jan 4
Last Quarter
Jan 11
New
Jan 18
First Quarter

Hourly Weather History & Observations

Time (EST) Temp. Dew Point Humidity Pressure Visibility Wind Dir Wind Speed Gust Speed Precip Events Conditions
12:14 AM 51.8 °F 48.2 °F 88% 29.96 in 8.0 mi Calm Calm - N/A   Overcast
12:37 AM 50.0 °F 46.4 °F 87% 29.96 in 7.0 mi Calm Calm - N/A   Mostly Cloudy
12:44 AM 50.0 °F 46.4 °F 87% 29.96 in 1.2 mi Calm Calm - N/A   Mostly Cloudy
12:47 AM 48.2 °F 46.4 °F 93% 29.96 in 0.8 mi Calm Calm - N/A   Mostly Cloudy
12:53 AM 48.9 °F 46.9 °F 93% 29.95 in 0.8 mi Calm Calm - N/A   Mostly Cloudy
12:59 AM 50.0 °F 46.4 °F 87% 29.96 in 1.8 mi Calm Calm - N/A   Mostly Cloudy
1:01 AM 48.2 °F 46.4 °F 93% 29.96 in 3.0 mi Calm Calm - N/A   Mostly Cloudy
1:16 AM 48.2 °F 46.4 °F 93% 29.96 in 1.8 mi Calm Calm - N/A   Overcast
1:25 AM 48.2 °F 48.2 °F 100% 29.96 in 2.5 mi Calm Calm - N/A   Overcast
1:30 AM 48.2 °F 48.2 °F 100% 29.96 in 3.0 mi WSW 3.5 mph - N/A   Overcast
1:53 AM 50.0 °F 48.0 °F 93% 29.96 in 4.0 mi Calm Calm - N/A   Overcast
2:10 AM 50.0 °F 48.2 °F 94% 29.96 in 2.5 mi SW 3.5 mph - N/A   Overcast
2:32 AM 51.8 °F 48.2 °F 88% 29.97 in 2.0 mi Calm Calm - N/A   Overcast
2:44 AM 51.8 °F 50.0 °F 94% 29.96 in 1.8 mi Calm Calm - N/A   Overcast
2:53 AM 51.1 °F 50.0 °F 96% 29.97 in 1.5 mi SW 3.5 mph - N/A   Overcast
3:14 AM 51.8 °F 48.2 °F 88% 29.99 in 1.8 mi West 4.6 mph - N/A   Overcast
3:23 AM 51.8 °F 50.0 °F 94% 29.99 in 2.5 mi Variable 4.6 mph - N/A   Overcast
3:32 AM 51.8 °F 50.0 °F 94% 29.99 in 3.0 mi NW 4.6 mph - N/A   Overcast
3:53 AM 51.1 °F 50.0 °F 96% 29.98 in 4.0 mi NNW 3.5 mph - N/A   Overcast
4:53 AM 51.1 °F 50.0 °F 96% 29.99 in 3.0 mi Calm Calm - N/A   Overcast
5:53 AM 51.1 °F 50.0 °F 96% 30.01 in 3.0 mi Calm Calm - N/A   Overcast
6:06 AM 51.8 °F 50.0 °F 94% 30.02 in 2.0 mi Calm Calm - N/A   Overcast
6:13 AM 51.8 °F 48.2 °F 88% 30.02 in 1.8 mi NNE 3.5 mph - N/A   Overcast
6:20 AM 51.8 °F 48.2 °F 88% 30.02 in 3.0 mi Calm Calm - N/A   Overcast
6:53 AM 51.1 °F 48.9 °F 92% 30.03 in 4.0 mi Calm Calm - N/A   Overcast
7:53 AM 51.1 °F 48.0 °F 89% 30.05 in 2.0 mi Calm Calm - N/A   Overcast
8:11 AM 51.8 °F 48.2 °F 88% 30.06 in 4.0 mi Calm Calm - N/A   Overcast
8:53 AM 51.1 °F 48.9 °F 92% 30.06 in 5.0 mi ENE 4.6 mph - N/A   Overcast
9:02 AM 51.8 °F 48.2 °F 88% 30.06 in 3.0 mi NE 4.6 mph - N/A   Overcast
9:53 AM 51.1 °F 48.0 °F 89% 30.09 in 9.0 mi ENE 5.8 mph - N/A   Overcast
10:53 AM 52.0 °F 48.9 °F 89% 30.08 in 8.0 mi ENE 6.9 mph - N/A   Overcast
11:53 AM 52.0 °F 48.9 °F 89% 30.06 in 8.0 mi ENE 6.9 mph - N/A   Overcast
12:53 PM 52.0 °F 48.9 °F 89% 30.03 in 10.0 mi ENE 6.9 mph - N/A   Overcast
1:45 PM 51.8 °F 48.2 °F 88% 30.04 in 10.0 mi East 4.6 mph - N/A   Overcast
1:53 PM 52.0 °F 48.0 °F 86% 30.04 in 10.0 mi ENE 5.8 mph - N/A   Overcast
2:53 PM 53.1 °F 48.9 °F 86% 30.02 in 10.0 mi NE 4.6 mph - N/A   Overcast
3:53 PM 53.1 °F 48.9 °F 86% 30.01 in 10.0 mi East 4.6 mph - N/A   Overcast
4:53 PM 53.1 °F 50.0 °F 89% 29.97 in 8.0 mi ENE 6.9 mph - 0.01 in Rain Light Rain
5:53 PM 53.1 °F 50.0 °F 89% 30.00 in 9.0 mi ENE 5.8 mph - 0.00 in Rain Light Rain
6:27 PM 53.6 °F 50.0 °F 88% 30.02 in 5.0 mi North 4.6 mph - 0.03 in Rain Rain
6:53 PM 53.1 °F 50.0 °F 89% 30.03 in 2.5 mi NNE 6.9 mph - 0.13 in Rain Heavy Rain
7:04 PM 53.6 °F 50.0 °F 88% 30.02 in 2.5 mi North 9.2 mph - 0.04 in Rain Heavy Rain
7:11 PM 53.6 °F 50.0 °F 88% 30.03 in 3.0 mi North 8.1 mph - 0.07 in Rain Heavy Rain
7:24 PM 53.6 °F 51.8 °F 94% 30.04 in 2.5 mi NNE 8.1 mph - 0.17 in Rain Heavy Rain
7:43 PM 53.6 °F 51.8 °F 94% 30.07 in 1.5 mi Variable 4.6 mph - 0.39 in Rain Heavy Rain
7:47 PM 53.6 °F 51.8 °F 94% 30.07 in 1.8 mi North 3.5 mph - 0.43 in Rain Heavy Rain
7:50 PM 53.6 °F 51.8 °F 94% 30.06 in 2.0 mi North 4.6 mph - 0.44 in Rain Heavy Rain
7:53 PM 53.1 °F 51.1 °F 93% 30.06 in 2.0 mi Calm Calm - 0.46 in Rain Heavy Rain
8:05 PM 53.6 °F 51.8 °F 94% 30.05 in 4.0 mi NE 5.8 mph - 0.03 in Rain Rain
8:24 PM 53.6 °F 50.0 °F 88% 30.01 in 5.0 mi ENE 8.1 mph - 0.06 in Rain Light Rain
8:53 PM 53.1 °F 51.1 °F 93% 29.98 in 8.0 mi East 10.4 mph 17.3 mph 0.10 in Rain Light Rain
9:53 PM 53.1 °F 51.1 °F 93% 29.98 in 10.0 mi East 8.1 mph - 0.00 in   Overcast
10:53 PM 53.1 °F 51.1 °F 93% 29.94 in 10.0 mi East 8.1 mph - N/A   Overcast
11:35 PM 53.6 °F 51.8 °F 94% 29.94 in 10.0 mi ESE 6.9 mph - N/A   Overcast
11:53 PM 53.1 °F 51.1 °F 93% 29.93 in 9.0 mi East 6.9 mph - N/A   Overcast